ICEYE-X6 (46497 NORAD) Tracking and Keplerian Element Data

This shows tracking and keplerian element data for the satellite.

Feedback or suggestion? Click here.




ElementValue
Catalog46497
NameICEYE-X6
Epoch Orbit23848
Epoch Day35.31584767
Epoch Year2025
RAAN3.6269
Inclination98.0227
Eccentricity0.0005086
Argument of Perigee352.7697
Mean Anonmoly7.3452
Mean Motion15.00686248
Decay Rate7.668E-05
L11 46497U 20068M 25035.31584767 .00007668 00000+0 61027-3 0 9997
L22 46497 98.0227 3.6269 0005086 352.7697 7.3452 15.00686248238480



Live tracking and technical data element details for ICEYE-X6 (NORAD 46497). ICEYE-X6 can be tracked NOW for your location showing map with azimuth and elevation plus other details from your city location.







IsCatalogInMostPopularTable: catalog: 46497, numindb: 297
Update: records affected: 1



GetName: 46497 ICEYE-X6

Hit Count: updated at: Wed, 18 Jun 2025 06:32:20 GMT